Nellis AFB, NV

7:09 PM PST on December 14, 2019 (GMT -0800)
Nellis Air Force Base

Weather History for KLSV - October, 2019

Change the Weather History Date:

Friday, October 18, 2019

  Actual Average Record
Temperature  
Mean Temperature 64 °F -  
Max Temperature 77 °F 79 °F 89 °F (2003)
Min Temperature 52 °F 52 °F 42 °F (1999)
Degree Days  
Heating Degree Days 1    
Growing Degree Days 14 (Base 50)    
Moisture  
Dew Point 16 °F    
Average Humidity 14    
Maximum Humidity 24    
Minimum Humidity 9    
Precipitation  
Precipitation 0.00 in - - ()
Sea Level Pressure  
Sea Level Pressure 29.83 in    
Wind  
Wind Speed 6 mph (WNW)    
Max Wind Speed 14 mph    
Max Gust Speed 20 mph    
Visibility 10 miles    
Events      
Averages and records for this station are not official NWS values.
T = Trace of Precipitation, MM = Missing Value Source: NWS Daily Summary

Daily Weather History Graph

Daily Weather History Graph

Search for Another Location

Airport or City:

Astronomy

Oct. 18, 2019 Rise Set
Actual Time 6:49 AM PDT 6:00 PM PDT
Civil Twilight 6:23 AM PDT 6:26 PM PDT
Nautical Twilight 5:53 AM PDT 6:56 PM PDT
Astronomical Twilight 5:23 AM PDT 7:25 PM PDT
Moon 9:27 PM PDT (10/18) 11:20 AM PDT (10/18)
Length of Visible Light 12h 02m
Length of Day
11h 10m
Waning Gibbous, 78% of the Moon is Illuminated
Oct 18
Waning Gibbous
Oct 21
Last Quarter
Oct 27
New
Nov 4
First Quarter
Nov 12
Full

Hourly Weather History & Observations

Time (PDT) Temp. Dew Point Humidity Pressure Visibility Wind Dir Wind Speed Gust Speed Precip Events Conditions
12:58 AM 70.5 °F 32.0 °F 24% 29.63 in 10.0 mi WNW 5.8 mph 17.3 mph N/A   Clear
1:58 AM 71.2 °F 30.4 °F 22% 29.66 in 10.0 mi West 5.8 mph - N/A   Clear
2:58 AM 70.7 °F 28.8 °F 21% 29.68 in 10.0 mi WSW 9.2 mph - N/A   Clear
3:58 AM 69.3 °F 22.6 °F 17% 29.72 in 10.0 mi NW 6.9 mph - N/A   Clear
4:58 AM 66.9 °F 19.2 °F 16% 29.76 in 10.0 mi SSE 4.6 mph - N/A   Clear
5:58 AM 64.8 °F 17.4 °F 16% 29.81 in 10.0 mi NNE 4.6 mph - N/A   Clear
6:58 AM 62.4 °F 15.6 °F 16% 29.85 in 10.0 mi North 13.8 mph - N/A   Clear
7:58 AM 64.8 °F 16.0 °F 15% 29.88 in 10.0 mi North 9.2 mph 19.6 mph N/A   Clear
8:58 AM 66.4 °F 18.9 °F 16% 29.92 in 10.0 mi NNW 8.1 mph - N/A   Clear
9:58 AM 68.0 °F 17.1 °F 14% 29.92 in 10.0 mi NNW 13.8 mph - N/A   Clear
10:58 AM 70.3 °F 17.1 °F 13% 29.91 in 10.0 mi West 5.8 mph - N/A   Clear
11:58 AM 71.8 °F 16.3 °F 12% 29.90 in 10.0 mi South 8.1 mph - N/A   Clear
12:58 PM 73.9 °F 13.8 °F 10% 29.87 in 10.0 mi South 6.9 mph - N/A   Clear
1:58 PM 75.7 °F 12.9 °F 9% 29.85 in 10.0 mi SSW 4.6 mph - N/A   Clear
2:58 PM 75.4 °F 12.6 °F 9% 29.84 in 10.0 mi SSW 3.5 mph - N/A   Clear
3:58 PM 75.4 °F 12.6 °F 9% 29.84 in 10.0 mi Calm Calm - N/A   Clear
4:58 PM 75.0 °F 12.4 °F 9% 29.82 in 10.0 mi East 5.8 mph - N/A   Clear
5:58 PM 73.8 °F 11.3 °F 9% 29.83 in 10.0 mi Calm Calm - N/A   Clear
6:58 PM 67.5 °F 9.0 °F 10% 29.84 in 10.0 mi NNE 4.6 mph - N/A   Clear
7:58 PM 66.4 °F 10.2 °F 11% 29.85 in 10.0 mi NNW 6.9 mph - N/A   Clear
8:58 PM 62.2 °F 10.8 °F 13% 29.87 in 10.0 mi NW 4.6 mph - N/A   Clear
9:58 PM 56.8 °F 9.7 °F 15% 29.88 in 10.0 mi Calm Calm - N/A   Clear
10:58 PM 53.8 °F 8.6 °F 16% 29.89 in 10.0 mi Calm Calm - N/A   Clear
11:58 PM 52.9 °F 9.1 °F 17% 29.88 in 10.0 mi West 3.5 mph - N/A   Clear